TimeEST,TemperatureF,Dew PointF,Humidity,Sea Level PressureIn,VisibilityMPH,Wind Direction,Wind SpeedMPH,Gust SpeedMPH,PrecipitationIn,Events,Conditions,WindDirDegrees,DateUTC
12:44 AM,64.4,59.0,83,30.22,2.5,East,11.5,20.7,0.03,Rain,Heavy Rain,80,2013-01-19 05:44:00
12:49 AM,64.4,59.0,83,30.22,3.0,East,6.9,-,0.07,Rain,Light Rain,80,2013-01-19 05:49:00
12:53 AM,64.0,60.1,87,30.22,4.0,ENE,9.2,-,0.08,Rain,Light Rain,70,2013-01-19 05:53:00
1:53 AM,66.0,61.0,84,30.20,10.0,ENE,11.5,-,0.06,,Overcast,60,2013-01-19 06:53:00
2:53 AM,64.9,61.0,87,30.19,10.0,ENE,16.1,24.2,0.03,,Overcast,60,2013-01-19 07:53:00
3:53 AM,64.9,60.1,84,30.19,10.0,ENE,9.2,-,0.01,,Overcast,60,2013-01-19 08:53:00
4:53 AM,64.0,61.0,90,30.19,6.0,NE,9.2,-,N/A,,Overcast,50,2013-01-19 09:53:00
5:53 AM,64.9,62.1,90,30.19,10.0,ENE,6.9,-,N/A,,Overcast,60,2013-01-19 10:53:00
6:53 AM,66.9,61.0,81,30.20,10.0,NE,9.2,-,N/A,,Overcast,50,2013-01-19 11:53:00
7:53 AM,66.9,61.0,81,30.22,10.0,NE,9.2,-,N/A,,Mostly Cloudy,40,2013-01-19 12:53:00
8:53 AM,70.0,63.0,78,30.23,10.0,NNE,8.1,-,N/A,,Mostly Cloudy,30,2013-01-19 13:53:00
9:53 AM,72.0,62.1,71,30.25,10.0,ENE,10.4,-,N/A,,Mostly Cloudy,60,2013-01-19 14:53:00
10:53 AM,73.9,63.0,68,30.23,10.0,ENE,13.8,-,N/A,,Overcast,60,2013-01-19 15:53:00
11:53 AM,73.0,64.0,73,30.22,10.0,ENE,11.5,23.0,N/A,,Mostly Cloudy,60,2013-01-19 16:53:00
12:53 PM,73.9,63.0,68,30.18,10.0,NE,11.5,-,N/A,,Overcast,40,2013-01-19 17:53:00
1:53 PM,71.1,63.0,75,30.15,10.0,ENE,9.2,-,0.00,,Overcast,60,2013-01-19 18:53:00
2:46 PM,68.0,64.4,88,30.15,3.0,NE,10.4,-,0.00,Rain,Light Rain,50,2013-01-19 19:46:00
2:50 PM,68.0,64.4,88,30.15,3.0,NE,8.1,-,0.01,Rain,Light Rain,40,2013-01-19 19:50:00
2:53 PM,69.1,64.9,87,30.14,5.0,NE,9.2,-,0.01,Rain,Light Rain,50,2013-01-19 19:53:00
3:00 PM,69.8,64.4,83,30.14,8.0,NE,12.7,-,0.00,Rain,Light Rain,50,2013-01-19 20:00:00
3:53 PM,69.1,64.0,84,30.14,9.0,NE,8.1,-,0.00,Rain,Light Rain,50,2013-01-19 20:53:00
4:53 PM,68.0,64.0,87,30.14,10.0,NE,4.6,-,0.00,Rain,Light Rain,50,2013-01-19 21:53:00
5:53 PM,68.0,64.9,90,30.14,5.0,ENE,3.5,-,0.00,Rain,Light Rain,60,2013-01-19 22:53:00
6:01 PM,68.0,64.4,88,30.15,5.0,East,8.1,-,0.00,,Overcast,80,2013-01-19 23:01:00
6:53 PM,69.1,64.9,87,30.16,10.0,NE,8.1,-,0.00,,Overcast,50,2013-01-19 23:53:00
7:12 PM,68.0,64.4,88,30.16,2.5,ESE,9.2,17.3,0.02,Rain,Rain,110,2013-01-20 00:12:00
7:26 PM,66.2,64.4,94,30.17,4.0,East,6.9,-,0.07,Rain,Light Rain,90,2013-01-20 00:26:00
7:36 PM,66.2,64.4,94,30.17,4.0,East,4.6,-,0.07,Rain,Light Rain,100,2013-01-20 00:36:00
7:53 PM,66.9,64.9,93,30.17,6.0,Calm,Calm,-,0.09,Rain,Light Rain,0,2013-01-20 00:53:00
8:05 PM,66.2,64.4,94,30.18,3.0,Calm,Calm,-,0.00,Rain,Light Rain,0,2013-01-20 01:05:00
8:13 PM,66.2,64.4,94,30.18,2.5,Calm,Calm,-,0.02,Rain,Rain,0,2013-01-20 01:13:00
8:46 PM,66.2,64.4,94,30.18,2.5,NE,5.8,-,0.09,Rain,Light Rain,50,2013-01-20 01:46:00
8:53 PM,66.0,64.9,96,30.17,2.5,NE,4.6,-,0.09,,Overcast,50,2013-01-20 01:53:00
8:58 PM,66.2,64.4,94,30.18,5.0,Calm,Calm,-,N/A,,Overcast,0,2013-01-20 01:58:00
9:10 PM,66.2,64.4,94,30.17,8.0,NNE,3.5,-,N/A,,Overcast,20,2013-01-20 02:10:00
9:21 PM,66.2,64.4,94,30.17,10.0,North,6.9,-,N/A,,Overcast,10,2013-01-20 02:21:00
9:34 PM,66.2,64.4,94,30.17,10.0,North,8.1,-,N/A,,Overcast,10,2013-01-20 02:34:00
9:48 PM,66.2,64.4,94,30.16,10.0,North,6.9,-,N/A,,Overcast,360,2013-01-20 02:48:00
9:53 PM,66.9,64.9,93,30.16,10.0,North,5.8,-,N/A,,Overcast,360,2013-01-20 02:53:00
10:32 PM,66.2,64.4,94,30.16,10.0,North,5.8,-,N/A,,Overcast,360,2013-01-20 03:32:00
10:53 PM,66.0,64.0,93,30.15,10.0,North,5.8,-,N/A,,Overcast,360,2013-01-20 03:53:00
11:53 PM,64.9,64.0,97,30.13,9.0,North,4.6,-,N/A,,Overcast,10,2013-01-20 04:53:00